Flag for Germany Weather past 2 weeks in Erding, Bavaria, Germany

Now
46 °F

Passing clouds.


Feels Like: 44 °F
Forecast: 37 / 46 °F
Wind: 6 mph from Southwest

Location: Munich / Franz Josef Strauss Airport

Current Time: Mar 2, 2015 at 12:29:56 AM

Latest Report: Mar 1, 2015 at 11:50 PM


Visibility: N/A

Pressure: 29.74 "Hg

Humidity: 82%

Dew point: 41 °F

Location of ErdingLocation

Historic Weather in Erding — Graph

°F

Erding temperature yesterday

Maximum temperature yesterday: 46 °F (at 2:50 PM)
Minimum temperature yesterday: 25 °F (at 2:50 AM)
Average temperature yesterday: 37 °F

Past Weeks' High & Low Weather Summary

 TemperatureHumidityPressure
High48 °F (Feb 20, 2:50 PM)100% (Feb 14, 11:50 PM)30.72 "Hg (Feb 14, 11:50 PM)
Low16 °F (Feb 20, 5:20 AM)43% (Feb 27, 2:20 PM)29.47 "Hg (Feb 21, 2:20 PM)
Average32 °F90%30.02 "Hg
* Reported Feb 14 11:20 PM — Mar 1 11:20 PM, Erding, Weather by CustomWeather, © 2015

Note: Actual official high and low records may vary slightly from our data, if they occured in-between our weather recording intervals... More about our weather records

Advertising

Erding weather history for previous 24 hours

 ConditionsComfort  
Time TempWeatherWind HumidityBarometerVisibility
11:20 PM
Sun, Mar 1
45 °FMostly cloudy.6 mph87%29.74 "HgN/A
10:20 PM46 °FLight rain. Passing clouds.9 mph82%29.77 "HgN/A
9:50 PM46 °FOvercast.14 mph82%29.80 "HgN/A
9:20 PM46 °FPassing clouds.15 mph82%29.80 "HgN/A
8:20 PM45 °FClear.12 mph87%29.80 "Hg10 mi
7:50 PM45 °FClear.12 mph87%29.80 "Hg10 mi
7:20 PM45 °FClear.10 mph81%29.80 "Hg10 mi
6:50 PM45 °FClear.13 mph81%29.80 "Hg10 mi
6:20 PM45 °FPassing clouds.12 mph81%29.80 "HgN/A
5:50 PM46 °FPartly sunny.9 mph82%29.80 "HgN/A
5:20 PM45 °FPartly sunny.12 mph87%29.80 "HgN/A
4:20 PM45 °FLight rain. Partly sunny.14 mph87%29.80 "HgN/A
3:50 PM45 °FLight rain. Partly sunny.15 mph87%29.80 "HgN/A
3:20 PM46 °FPartly sunny.18 mph82%29.80 "HgN/A
2:50 PM46 °FBroken clouds.17 mph82%29.80 "HgN/A
2:20 PM45 °FBroken clouds.14 mph87%29.80 "HgN/A
1:50 PM43 °FSprinkles. Overcast.18 mph93%29.83 "Hg2 mi
1:20 PM43 °FLight rain. Partly sunny.10 mph87%29.83 "HgN/A
12:50 PM41 °FPartly sunny.10 mph87%29.83 "HgN/A
12:20 PM39 °FLight rain. Partly sunny.8 mph93%29.83 "HgN/A
11:50 AM37 °FPartly sunny.7 mph100%29.83 "HgN/A
11:20 AM36 °FLight rain. Partly sunny.8 mph93%29.83 "HgN/A
10:50 AM36 °FLight rain. Partly sunny.9 mph93%29.86 "Hg6 mi
10:20 AM36 °FLight rain. Partly sunny.9 mph93%29.86 "Hg6 mi
9:50 AM36 °FLight rain. Partly sunny.8 mph93%29.86 "HgN/A
9:20 AM34 °FLight snow. Partly sunny.10 mph93%29.89 "Hg6 mi
8:50 AM34 °FLight snow. Partly sunny.8 mph93%29.89 "Hg6 mi
8:20 AM34 °FLight snow. Partly sunny.9 mph87%29.89 "Hg4 mi
7:50 AM34 °FBroken clouds.3 mph87%29.89 "HgN/A
7:20 AM32 °FPassing clouds.6 mph93%29.89 "HgN/A
6:50 AM32 °FClear.2 mph93%29.89 "Hg5 mi
6:20 AM32 °FClear.3 mph93%29.89 "Hg5 mi
5:50 AM27 °FIce fog.2 mph100%29.89 "Hg3 mi
5:20 AM25 °FCold.1 mph100%29.92 "Hg3 mi
4:50 AM25 °FCold.1 mph100%29.92 "Hg2 mi
4:20 AM27 °FSnow. Overcast.2 mph100%29.92 "Hg2 mi
3:50 AM27 °FSnow. Overcast.2 mph100%29.92 "Hg2 mi
3:20 AM27 °FChilly.1 mph100%29.95 "Hg3 mi
2:50 AM25 °FSnow. Overcast.3 mph100%29.95 "Hg3 mi
2:20 AM27 °FChilly.1 mph100%29.98 "Hg4 mi
1:50 AM27 °FChilly.1 mph100%29.98 "Hg4 mi
1:20 AM27 °FChilly.2 mph93%29.98 "Hg4 mi
12:50 AM27 °FChilly.1 mph100%30.01 "Hg4 mi
12:20 AM28 °FFog.2 mph100%30.01 "Hg5 mi
Weather by CustomWeather, © 2015

See weather overviewHow to use our weather pages